Flag for U.S.A. Weather past 2 weeks in Atlantic City, New Jersey, U.S.A.

Now
41 °F

Passing clouds.


Feels Like: 37 °F
Forecast: 41 / 58 °F
Wind: 6 mph from South

Location: Atlantic City International Airport


UV Index: 5 (Moderate)

Visibility: 10 mi


Pressure: 30.32 "Hg

Humidity: 82%

Dew point: 36 °F

Location of Atlantic CityLocation

Historic Weather in Atlantic City

°F

Atlantic City temperature yesterday

Maximum temperature yesterday: 46 °F (at 9:54 AM)
Minimum temperature yesterday: 29 °F (at 2:54 AM)
Average temperature yesterday: 38 °F

Past Weeks' High & Low Weather Summary

 TemperatureHumidityPressure
High74 °F (Apr 11, 11:54 AM)100% (Apr 4, 9:54 PM)30.70 "Hg (Apr 4, 9:54 PM)
Low29 °F (Apr 6, 6:54 AM)22% (Apr 10, 1:54 PM)29.47 "Hg (Apr 8, 8:54 AM)
Average51 °F69%30.05 "Hg
* Reported Apr 3 9:54 PM — Apr 18 9:02 PM, Atlantic City, Weather by CustomWeather, © 2014

Note: Actual official high and low records may vary slightly from our data, if they occured in-between our weather recording intervals... More about our weather records

Advertising

Historic Weather Conditions — Data for Previous 24 hours

 ConditionsComfort  
Time TempWeatherWind HumidityBarometerVisibility
9:02 PM
Apr 18
41 °FPassing clouds.6 mph82%30.32 "Hg10 mi
7:54 PM40 °FSunny.5 mph83%30.33 "Hg10 mi
6:54 PM42 °FSunny.7 mph76%30.34 "Hg10 mi
5:54 PM44 °FSunny.9 mph71%30.35 "Hg10 mi
4:54 PM47 °FSunny.9 mph64%30.36 "Hg10 mi
3:54 PM48 °FSunny.12 mph63%30.38 "Hg10 mi
2:54 PM47 °FPassing clouds.5 mph66%30.41 "Hg10 mi
1:54 PM46 °FOvercast.6 mph66%30.44 "Hg10 mi
12:54 PM47 °FOvercast.5 mph64%30.47 "Hg10 mi
11:54 AM46 °FOvercast.13 mph63%30.47 "Hg10 mi
10:54 AM45 °FOvercast.15 mph65%30.49 "Hg10 mi
9:54 AM43 °FOvercast.14 mph68%30.49 "Hg10 mi
8:54 AM41 °FOvercast.9 mph70%30.52 "Hg10 mi
7:54 AM40 °FOvercast.10 mph73%30.52 "Hg10 mi
6:54 AM39 °FOvercast.6 mph76%30.52 "Hg10 mi
5:54 AM39 °FOvercast.10 mph76%30.48 "Hg10 mi
4:54 AM39 °FOvercast.7 mph76%30.48 "Hg10 mi
3:54 AM39 °FOvercast.8 mph76%30.50 "Hg10 mi
2:54 AM39 °FOvercast.9 mph73%30.53 "Hg10 mi
1:54 AM39 °FOvercast.7 mph76%30.57 "Hg10 mi
12:54 AM39 °FOvercast.8 mph73%30.60 "Hg10 mi
11:54 PM
Apr 17
39 °FOvercast.10 mph73%30.58 "Hg10 mi
10:54 PM39 °FPassing clouds.12 mph70%30.58 "Hg10 mi
Weather by CustomWeather, © 2014

See weather overview